Location: Newark
(24.4500°N, 54.3833°E)
Time: 00:47:31
(UTC+00:00)

Envisat - Visible Passes

Search period start: 19 September 2019 00:00
Search period end: 29 September 2019 00:00
Orbit: 764 x 766 km, 98.1° (Epoch: 18 September)

Date Brightness Start Highest point End Pass type
(mag) Time Alt. Az. Time Alt. Az. Time Alt. Az.
19 Sep 3.4 14:55:41 10° S 15:00:43 69° WSW 15:05:47 10° NNW visible
20 Sep 6.0 16:00:51 10° WSW 16:03:08 13° W 16:05:26 10° WNW visible
21 Sep 4.7 15:21:40 10° SSW 15:26:14 34° W 15:30:50 10° NW visible
22 Sep 3.0 14:44:25 10° SSE 14:49:28 89° ENE 14:54:34 10° NNW visible
23 Sep 5.8 15:48:30 10° SW 15:51:50 18° W 15:55:10 10° NW visible
24 Sep 4.2 15:10:08 10° S 15:14:58 46° W 15:19:49 10° NNW visible
25 Sep 3.0 14:33:13 10° SSE 14:38:15 68° ENE 14:43:17 10° N visible
26 Sep 5.4 15:36:33 10° SSW 15:40:31 23° W 15:44:31 10° NW visible
27 Sep 3.6 14:58:43 10° S 15:03:42 61° W 15:08:43 10° NNW visible
28 Sep 6.2 16:04:32 10° WSW 16:06:09 11° W 16:07:47 10° WNW visible
